Time,TemperatureF,DewpointF,PressureIn,WindDirection,WindDirectionDegrees,WindSpeedMPH,WindSpeedGustMPH,Humidity,HourlyPrecipIn,Conditions,Clouds,dailyrainin,SoftwareType,DateUTC
2013-11-05 00:00:00,47.0,43.0,29.14,WNW,289,10.0,16.0,86,0.00,RA,RA,0.00,WeatherDisplay:10.37,2013-11-05 00:00:00,
2013-11-05 00:10:00,47.7,43.7,29.15,West,279,13.0,18.0,86,0.00,CLR,CLR,0.00,WeatherDisplay:10.37,2013-11-05 00:10:00,
2013-11-05 00:20:00,48.2,43.9,29.14,WNW,289,13.0,17.0,85,0.00,CLR,CLR,0.00,WeatherDisplay:10.37,2013-11-05 00:20:00,
2013-11-05 00:30:00,48.4,44.1,29.15,WNW,298,12.0,17.0,85,0.00,CLR,CLR,0.00,WeatherDisplay:10.37,2013-11-05 00:30:00,
2013-11-05 00:40:00,48.6,44.3,29.14,WNW,289,10.0,20.0,85,0.00,CLR,CLR,0.00,WeatherDisplay:10.37,2013-11-05 00:40:00,
2013-11-05 00:50:00,48.6,43.9,29.12,West,276,7.0,15.0,84,0.00,CLR,CLR,0.00,WeatherDisplay:10.37,2013-11-05 00:50:00,
2013-11-05 01:00:00,48.6,43.9,29.11,WNW,292,7.0,11.0,84,0.00,CLR,CLR,0.00,WeatherDisplay:10.37,2013-11-05 01:00:00,
2013-11-05 01:10:00,48.6,43.9,29.11,West,274,6.0,8.0,84,0.00,CLR,CLR,0.00,WeatherDisplay:10.37,2013-11-05 01:10:00,
2013-11-05 01:20:00,48.7,44.4,29.10,West,267,5.0,8.0,85,0.00,CLR,CLR,0.00,WeatherDisplay:10.37,2013-11-05 01:20:00,
2013-11-05 01:30:00,48.7,44.4,29.09,West,270,3.0,7.0,85,0.00,CLR,CLR,0.00,WeatherDisplay:10.37,2013-11-05 01:30:00,
2013-11-05 01:40:00,49.3,45.0,29.08,SW,221,7.0,21.0,85,0.01,RA,RA,0.01,WeatherDisplay:10.37,2013-11-05 01:40:00,
2013-11-05 01:50:00,49.1,45.1,29.08,SW,219,6.0,9.0,86,0.01,RA,RA,0.02,WeatherDisplay:10.37,2013-11-05 01:50:00,
2013-11-05 02:00:00,50.7,47.0,29.08,SW,225,15.0,20.0,87,0.00,,,0.02,WeatherDisplay:10.37,2013-11-05 02:00:00,
2013-11-05 02:10:00,51.8,48.1,29.08,WSW,245,21.0,29.0,87,0.00,CLR,CLR,0.02,WeatherDisplay:10.37,2013-11-05 02:10:00,
2013-11-05 02:20:00,51.5,47.4,29.08,WNW,297,23.0,42.0,86,0.02,RA,RA,0.05,WeatherDisplay:10.37,2013-11-05 02:20:00,
2013-11-05 02:30:00,51.8,45.8,29.08,WNW,295,23.0,34.0,80,0.00,CLR,CLR,0.05,WeatherDisplay:10.37,2013-11-05 02:30:00,
2013-11-05 02:40:00,51.6,45.7,29.08,WNW,298,16.0,29.0,80,0.00,CLR,CLR,0.05,WeatherDisplay:10.37,2013-11-05 02:40:00,
2013-11-05 02:50:00,51.8,45.5,29.07,WNW,286,18.0,29.0,79,0.00,CLR,CLR,0.05,WeatherDisplay:10.37,2013-11-05 02:50:00,
2013-11-05 03:00:00,51.8,45.2,29.07,West,267,17.0,28.0,78,0.00,CLR,CLR,0.05,WeatherDisplay:10.37,2013-11-05 03:00:00,
2013-11-05 03:10:00,50.9,43.9,29.08,WNW,289,25.0,40.0,77,0.08,RA,RA,0.13,WeatherDisplay:10.37,2013-11-05 03:10:00,
2013-11-05 03:20:00,50.5,43.9,29.07,West,280,22.0,37.0,78,0.04,RA,RA,0.17,WeatherDisplay:10.37,2013-11-05 03:20:00,
2013-11-05 03:30:00,50.5,44.3,29.08,WNW,300,18.0,35.0,79,0.00,CLR,CLR,0.17,WeatherDisplay:10.37,2013-11-05 03:30:00,
2013-11-05 03:40:00,50.5,45.2,29.07,WNW,283,21.0,32.0,82,0.00,CLR,CLR,0.17,WeatherDisplay:10.37,2013-11-05 03:40:00,
2013-11-05 03:50:00,50.5,45.2,29.08,WNW,288,21.0,30.0,82,0.00,CLR,CLR,0.17,WeatherDisplay:10.37,2013-11-05 03:50:00,
2013-11-05 04:00:00,50.2,44.6,29.08,West,280,22.0,33.0,81,0.00,CLR,CLR,0.17,WeatherDisplay:10.37,2013-11-05 04:00:00,
2013-11-05 04:10:00,50.5,44.3,29.09,WNW,287,20.0,35.0,79,0.01,RA,RA,0.18,WeatherDisplay:10.37,2013-11-05 04:10:00,
2013-11-05 04:20:00,50.5,43.9,29.10,WNW,286,21.0,30.0,78,0.00,CLR,CLR,0.18,WeatherDisplay:10.37,2013-11-05 04:20:00,
2013-11-05 04:30:00,50.6,43.3,29.10,WNW,294,22.0,35.0,76,0.00,CLR,CLR,0.18,WeatherDisplay:10.37,2013-11-05 04:30:00,
2013-11-05 04:40:00,50.4,43.1,29.10,WNW,292,16.0,31.0,76,0.00,CLR,CLR,0.18,WeatherDisplay:10.37,2013-11-05 04:40:00,
2013-11-05 04:50:00,50.2,43.2,29.11,NW,311,18.0,29.0,77,0.00,CLR,CLR,0.18,WeatherDisplay:10.37,2013-11-05 04:50:00,
2013-11-05 05:00:00,50.0,43.1,29.12,WNW,291,18.0,26.0,77,0.00,CLR,CLR,0.18,WeatherDisplay:10.37,2013-11-05 05:00:00,
2013-11-05 05:10:00,50.5,43.6,29.12,NW,306,16.0,26.0,77,0.00,CLR,CLR,0.18,WeatherDisplay:10.37,2013-11-05 05:10:00,
2013-11-05 05:20:00,50.2,42.9,29.12,NW,315,15.0,23.0,76,0.00,CLR,CLR,0.18,WeatherDisplay:10.37,2013-11-05 05:20:00,
2013-11-05 05:30:00,50.0,43.1,29.12,WNW,286,16.0,24.0,77,0.00,CLR,CLR,0.18,WeatherDisplay:10.37,2013-11-05 05:30:00,
2013-11-05 05:40:00,50.0,42.7,29.13,West,279,16.0,23.0,76,0.00,CLR,CLR,0.18,WeatherDisplay:10.37,2013-11-05 05:40:00,
2013-11-05 05:50:00,50.0,42.4,29.13,WNW,287,20.0,23.0,75,0.00,CLR,CLR,0.18,WeatherDisplay:10.37,2013-11-05 05:50:00,
2013-11-05 06:00:00,50.0,42.4,29.14,WNW,301,17.0,25.0,75,0.00,CLR,CLR,0.18,WeatherDisplay:10.37,2013-11-05 06:00:00,
2013-11-05 06:10:00,53.2,43.7,29.15,WNW,302,12.0,22.0,70,0.00,CLR,CLR,0.18,WeatherDisplay:10.37,2013-11-05 06:10:00,
2013-11-05 06:20:00,53.4,42.3,29.15,WNW,289,17.0,25.0,66,0.00,CLR,CLR,0.18,WeatherDisplay:10.37,2013-11-05 06:20:00,
2013-11-05 06:30:00,54.0,42.1,29.14,WNW,285,16.0,27.0,64,0.00,CLR,CLR,0.18,WeatherDisplay:10.37,2013-11-05 06:30:00,
2013-11-05 06:40:00,54.4,41.7,29.14,WNW,282,14.0,23.0,62,0.00,CLR,CLR,0.18,WeatherDisplay:10.37,2013-11-05 06:40:00,
2013-11-05 06:50:00,55.2,42.0,29.14,NW,305,13.0,21.0,61,0.00,CLR,CLR,0.18,WeatherDisplay:10.37,2013-11-05 06:50:00,
2013-11-05 07:00:00,54.1,40.6,29.15,NW,310,16.0,27.0,60,0.00,CLR,CLR,0.18,WeatherDisplay:10.37,2013-11-05 07:00:00,
2013-11-05 07:10:00,53.6,39.6,29.15,West,280,21.0,29.0,59,0.00,CLR,CLR,0.18,WeatherDisplay:10.37,2013-11-05 07:10:00,
2013-11-05 07:20:00,53.2,40.5,29.16,WNW,293,20.0,29.0,62,0.00,CLR,CLR,0.18,WeatherDisplay:10.37,2013-11-05 07:20:00,
2013-11-05 07:30:00,53.2,41.3,29.17,WNW,296,18.0,28.0,64,0.00,CLR,CLR,0.18,WeatherDisplay:10.37,2013-11-05 07:30:00,
2013-11-05 07:40:00,53.4,41.9,29.17,WNW,291,16.0,24.0,65,0.00,CLR,CLR,0.18,WeatherDisplay:10.37,2013-11-05 07:40:00,
2013-11-05 07:50:00,54.3,41.9,29.18,NW,305,10.0,20.0,63,0.00,CLR,CLR,0.18,WeatherDisplay:10.37,2013-11-05 07:50:00,
2013-11-05 08:00:00,53.6,41.7,29.17,West,275,12.0,17.0,64,0.00,CLR,CLR,0.18,WeatherDisplay:10.37,2013-11-05 08:00:00,
2013-11-05 08:10:00,53.6,42.1,29.18,WNW,291,18.0,28.0,65,0.00,CLR,CLR,0.18,WeatherDisplay:10.37,2013-11-05 08:10:00,
2013-11-05 08:20:00,53.9,42.8,29.18,WNW,289,16.0,25.0,66,0.00,CLR,CLR,0.18,WeatherDisplay:10.37,2013-11-05 08:20:00,
2013-11-05 08:30:00,54.5,43.0,29.19,WNW,300,17.0,23.0,65,0.00,CLR,CLR,0.18,WeatherDisplay:10.37,2013-11-05 08:30:00,
2013-11-05 08:40:00,54.3,42.4,29.19,WNW,287,17.0,27.0,64,0.00,CLR,CLR,0.18,WeatherDisplay:10.37,2013-11-05 08:40:00,
2013-11-05 08:50:00,55.0,43.0,29.20,WNW,302,15.0,24.0,64,0.00,CLR,CLR,0.18,WeatherDisplay:10.37,2013-11-05 08:50:00,
2013-11-05 09:00:00,54.9,43.0,29.20,WNW,286,18.0,30.0,64,0.00,CLR,CLR,0.18,WeatherDisplay:10.37,2013-11-05 09:00:00,
2013-11-05 09:10:00,52.3,42.4,29.20,NW,304,21.0,34.0,69,0.05,RA,RA,0.22,WeatherDisplay:10.37,2013-11-05 09:10:00,
2013-11-05 09:20:00,53.1,43.2,29.21,NW,305,20.0,30.0,69,0.00,CLR,CLR,0.22,WeatherDisplay:10.37,2013-11-05 09:20:00,
2013-11-05 09:30:00,52.3,43.2,29.21,NW,312,18.0,29.0,71,0.00,CLR,CLR,0.22,WeatherDisplay:10.37,2013-11-05 09:30:00,
2013-11-05 09:40:00,53.2,42.5,29.21,WNW,291,16.0,26.0,67,0.00,CLR,CLR,0.22,WeatherDisplay:10.37,2013-11-05 09:40:00,
2013-11-05 09:50:00,54.5,42.5,29.22,WNW,303,17.0,23.0,64,0.00,CLR,CLR,0.22,WeatherDisplay:10.37,2013-11-05 09:50:00,
2013-11-05 10:00:00,54.5,43.0,29.22,WNW,296,16.0,23.0,65,0.00,CLR,CLR,0.22,WeatherDisplay:10.37,2013-11-05 10:00:00,
2013-11-05 10:10:00,54.7,43.1,29.22,WNW,295,18.0,23.0,65,0.00,CLR,CLR,0.22,WeatherDisplay:10.37,2013-11-05 10:10:00,
2013-11-05 10:20:00,54.6,43.0,29.22,WNW,300,15.0,23.0,65,0.00,CLR,CLR,0.22,WeatherDisplay:10.37,2013-11-05 10:20:00,
2013-11-05 10:30:00,54.7,42.7,29.22,WNW,297,16.0,22.0,64,0.00,CLR,CLR,0.22,WeatherDisplay:10.37,2013-11-05 10:30:00,
2013-11-05 10:40:00,54.9,42.5,29.22,WNW,286,14.0,29.0,63,0.00,CLR,CLR,0.22,WeatherDisplay:10.37,2013-11-05 10:40:00,
2013-11-05 10:50:00,54.4,41.7,29.22,NW,304,18.0,28.0,62,0.00,CLR,CLR,0.22,WeatherDisplay:10.37,2013-11-05 10:50:00,
2013-11-05 11:00:00,53.2,42.2,29.22,WNW,296,14.0,26.0,66,0.00,CLR,CLR,0.22,WeatherDisplay:10.37,2013-11-05 11:00:00,
2013-11-05 11:10:00,53.9,41.6,29.24,WNW,288,18.0,24.0,63,0.00,CLR,CLR,0.22,WeatherDisplay:10.37,2013-11-05 11:10:00,
2013-11-05 11:20:00,53.6,41.7,29.24,WNW,298,18.0,27.0,64,0.00,CLR,CLR,0.22,WeatherDisplay:10.37,2013-11-05 11:20:00,
2013-11-05 11:30:00,54.3,42.4,29.24,NW,315,15.0,23.0,64,0.00,CLR,CLR,0.22,WeatherDisplay:10.37,2013-11-05 11:30:00,
2013-11-05 11:40:00,54.7,42.7,29.24,WNW,302,18.0,22.0,64,0.00,CLR,CLR,0.22,WeatherDisplay:10.37,2013-11-05 11:40:00,
2013-11-05 11:50:00,55.0,42.2,29.24,NW,305,15.0,23.0,62,0.00,CLR,CLR,0.22,WeatherDisplay:10.37,2013-11-05 11:50:00,
2013-11-05 12:00:00,54.5,41.7,29.24,West,277,15.0,27.0,62,0.00,CLR,CLR,0.22,WeatherDisplay:10.37,2013-11-05 12:00:00,
2013-11-05 12:10:00,52.3,40.1,29.25,NW,308,21.0,36.0,63,0.04,RA,RA,0.26,WeatherDisplay:10.37,2013-11-05 12:10:00,
2013-11-05 12:20:00,52.3,40.9,29.24,WNW,284,20.0,35.0,65,0.00,CLR,CLR,0.26,WeatherDisplay:10.37,2013-11-05 12:20:00,
2013-11-05 12:30:00,53.4,41.1,29.24,WNW,293,17.0,29.0,63,0.00,CLR,CLR,0.26,WeatherDisplay:10.37,2013-11-05 12:30:00,
2013-11-05 12:40:00,54.5,41.3,29.25,WNW,301,17.0,29.0,61,0.00,CLR,CLR,0.26,WeatherDisplay:10.37,2013-11-05 12:40:00,
2013-11-05 12:50:00,52.8,40.5,29.25,NNW,329,17.0,33.0,63,0.00,CLR,CLR,0.26,WeatherDisplay:10.37,2013-11-05 12:50:00,
2013-11-05 13:00:00,53.8,40.6,29.25,NW,315,17.0,26.0,61,0.00,CLR,CLR,0.26,WeatherDisplay:10.37,2013-11-05 13:00:00,
2013-11-05 13:10:00,53.4,39.9,29.25,West,272,17.0,25.0,60,0.00,CLR,CLR,0.26,WeatherDisplay:10.37,2013-11-05 13:10:00,
2013-11-05 13:20:00,54.0,40.4,29.26,WNW,294,17.0,26.0,60,0.00,CLR,CLR,0.26,WeatherDisplay:10.37,2013-11-05 13:20:00,
2013-11-05 13:30:00,54.7,41.5,29.26,WNW,290,13.0,22.0,61,0.00,CLR,CLR,0.26,WeatherDisplay:10.37,2013-11-05 13:30:00,
2013-11-05 13:40:00,51.0,40.8,29.26,WNW,284,20.0,34.0,68,0.04,RA,RA,0.29,WeatherDisplay:10.37,2013-11-05 13:40:00,
2013-11-05 13:50:00,51.4,43.1,29.25,WNW,300,15.0,32.0,73,0.00,,,0.29,WeatherDisplay:10.37,2013-11-05 13:50:00,
2013-11-05 14:00:00,52.7,43.9,29.25,West,277,17.0,25.0,72,0.00,CLR,CLR,0.29,WeatherDisplay:10.37,2013-11-05 14:00:00,
2013-11-05 14:10:00,52.9,41.4,29.25,WNW,289,21.0,29.0,65,0.00,CLR,CLR,0.29,WeatherDisplay:10.37,2013-11-05 14:10:00,
2013-11-05 14:20:00,52.9,39.4,29.25,WNW,285,22.0,28.0,60,0.00,CLR,CLR,0.29,WeatherDisplay:10.37,2013-11-05 14:20:00,
2013-11-05 14:30:00,52.9,40.2,29.26,WNW,293,18.0,28.0,62,0.01,RA,RA,0.31,WeatherDisplay:10.37,2013-11-05 14:30:00,
2013-11-05 14:40:00,53.8,41.1,29.25,WNW,286,13.0,25.0,62,0.00,CLR,CLR,0.31,WeatherDisplay:10.37,2013-11-05 14:40:00,
2013-11-05 14:50:00,53.0,40.7,29.25,West,261,17.0,30.0,63,0.00,CLR,CLR,0.31,WeatherDisplay:10.37,2013-11-05 14:50:00,
2013-11-05 15:00:00,52.7,40.5,29.25,WNW,301,18.0,29.0,63,0.00,CLR,CLR,0.31,WeatherDisplay:10.37,2013-11-05 15:00:00,
2013-11-05 15:10:00,53.4,41.1,29.26,NW,308,20.0,29.0,63,0.00,CLR,CLR,0.31,WeatherDisplay:10.37,2013-11-05 15:10:00,
2013-11-05 15:20:00,53.1,40.5,29.26,WNW,294,17.0,30.0,62,0.00,CLR,CLR,0.31,WeatherDisplay:10.37,2013-11-05 15:20:00,
2013-11-05 15:30:00,53.1,40.4,29.26,WNW,298,20.0,29.0,62,0.00,CLR,CLR,0.31,WeatherDisplay:10.37,2013-11-05 15:30:00,
2013-11-05 15:40:00,53.1,40.9,29.26,WNW,298,20.0,30.0,63,0.00,CLR,CLR,0.31,WeatherDisplay:10.37,2013-11-05 15:40:00,
2013-11-05 15:50:00,51.0,40.0,29.26,WNW,285,21.0,35.0,66,0.00,CLR,CLR,0.31,WeatherDisplay:10.37,2013-11-05 15:50:00,
2013-11-05 16:00:00,51.7,40.7,29.25,WNW,298,14.0,27.0,66,0.01,RA,RA,0.32,WeatherDisplay:10.37,2013-11-05 16:00:00,
2013-11-05 16:10:00,52.5,40.6,29.25,West,279,15.0,21.0,64,0.00,CLR,CLR,0.32,WeatherDisplay:10.37,2013-11-05 16:10:00,
2013-11-05 16:20:00,52.7,40.5,29.25,WNW,292,17.0,23.0,63,0.00,CLR,CLR,0.32,WeatherDisplay:10.37,2013-11-05 16:20:00,
2013-11-05 16:30:00,52.5,40.7,29.25,WNW,283,17.0,24.0,64,0.00,CLR,CLR,0.32,WeatherDisplay:10.37,2013-11-05 16:30:00,
2013-11-05 16:40:00,53.4,41.9,29.25,WNW,294,18.0,26.0,65,0.00,CLR,CLR,0.32,WeatherDisplay:10.37,2013-11-05 16:40:00,
2013-11-05 16:50:00,52.3,40.9,29.25,WNW,303,20.0,29.0,65,0.00,CLR,CLR,0.32,WeatherDisplay:10.37,2013-11-05 16:50:00,
2013-11-05 17:00:00,53.1,41.6,29.25,NW,311,13.0,29.0,65,0.00,CLR,CLR,0.32,WeatherDisplay:10.37,2013-11-05 17:00:00,
2013-11-05 17:10:00,54.2,41.5,29.25,WNW,295,9.0,23.0,62,0.00,CLR,CLR,0.32,WeatherDisplay:10.37,2013-11-05 17:10:00,
2013-11-05 17:20:00,54.1,41.3,29.26,WNW,291,12.0,20.0,62,0.00,CLR,CLR,0.32,WeatherDisplay:10.37,2013-11-05 17:20:00,
2013-11-05 17:30:00,53.6,41.3,29.26,NW,308,9.0,17.0,63,0.00,CLR,CLR,0.32,WeatherDisplay:10.37,2013-11-05 17:30:00,
2013-11-05 17:40:00,53.8,41.1,29.27,WNW,295,10.0,17.0,62,0.00,CLR,CLR,0.32,WeatherDisplay:10.37,2013-11-05 17:40:00,
2013-11-05 17:50:00,53.6,41.3,29.27,WNW,298,13.0,17.0,63,0.00,CLR,CLR,0.32,WeatherDisplay:10.37,2013-11-05 17:50:00,
2013-11-05 18:00:00,53.9,41.2,29.27,NW,308,14.0,17.0,62,0.00,CLR,CLR,0.32,WeatherDisplay:10.37,2013-11-05 18:00:00,
2013-11-05 18:10:00,50.1,39.9,29.27,West,267,8.0,18.0,68,0.00,CLR,CLR,0.32,WeatherDisplay:10.37,2013-11-05 18:10:00,
2013-11-05 18:20:00,49.5,41.2,29.27,WNW,303,10.0,17.0,73,0.00,CLR,CLR,0.32,WeatherDisplay:10.37,2013-11-05 18:20:00,
2013-11-05 18:30:00,49.7,41.7,29.27,WNW,292,21.0,28.0,74,0.00,CLR,CLR,0.32,WeatherDisplay:10.37,2013-11-05 18:30:00,
2013-11-05 18:40:00,49.0,41.7,29.27,NW,314,12.0,28.0,76,0.00,CLR,CLR,0.32,WeatherDisplay:10.37,2013-11-05 18:40:00,
2013-11-05 18:50:00,48.4,40.8,29.27,WNW,287,13.0,18.0,75,0.00,CLR,CLR,0.32,WeatherDisplay:10.37,2013-11-05 18:50:00,
2013-11-05 19:00:00,48.6,41.0,29.27,WNW,293,10.0,17.0,75,0.00,CLR,CLR,0.32,WeatherDisplay:10.37,2013-11-05 19:00:00,
2013-11-05 19:10:00,48.6,41.3,29.28,WNW,282,12.0,18.0,76,0.00,CLR,CLR,0.32,WeatherDisplay:10.37,2013-11-05 19:10:00,
2013-11-05 19:20:00,48.7,41.8,29.29,WNW,283,17.0,23.0,77,0.00,CLR,CLR,0.32,WeatherDisplay:10.37,2013-11-05 19:20:00,
2013-11-05 19:30:00,47.7,41.1,29.27,NW,305,14.0,31.0,78,0.00,CLR,CLR,0.32,WeatherDisplay:10.37,2013-11-05 19:30:00,
2013-11-05 19:40:00,47.8,40.3,29.28,WNW,296,14.0,22.0,75,0.00,CLR,CLR,0.32,WeatherDisplay:10.37,2013-11-05 19:40:00,
2013-11-05 19:50:00,47.7,40.1,29.28,WNW,291,13.0,21.0,75,0.00,CLR,CLR,0.32,WeatherDisplay:10.37,2013-11-05 19:50:00,
2013-11-05 20:00:00,47.7,40.5,29.27,WNW,285,13.0,20.0,76,0.00,CLR,CLR,0.32,WeatherDisplay:10.37,2013-11-05 20:00:00,
2013-11-05 20:10:00,48.2,41.0,29.28,WNW,288,10.0,17.0,76,0.00,CLR,CLR,0.32,WeatherDisplay:10.37,2013-11-05 20:10:00,
2013-11-05 20:20:00,48.7,41.8,29.28,WNW,295,12.0,17.0,77,0.00,CLR,CLR,0.32,WeatherDisplay:10.37,2013-11-05 20:20:00,
2013-11-05 20:30:00,49.1,41.5,29.29,WNW,290,12.0,18.0,75,0.00,CLR,CLR,0.32,WeatherDisplay:10.37,2013-11-05 20:30:00,
2013-11-05 20:40:00,49.5,41.5,29.27,WNW,285,13.0,20.0,74,0.00,CLR,CLR,0.32,WeatherDisplay:10.37,2013-11-05 20:40:00,
2013-11-05 20:50:00,49.8,41.9,29.27,WNW,303,17.0,21.0,74,0.00,CLR,CLR,0.32,WeatherDisplay:10.37,2013-11-05 20:50:00,
2013-11-05 21:00:00,49.5,41.5,29.28,WNW,303,14.0,24.0,74,0.00,CLR,CLR,0.32,WeatherDisplay:10.37,2013-11-05 21:00:00,
2013-11-05 21:10:00,48.4,40.5,29.28,NW,305,13.0,21.0,74,0.00,CLR,CLR,0.32,WeatherDisplay:10.37,2013-11-05 21:10:00,
2013-11-05 21:20:00,48.6,40.6,29.28,WNW,284,12.0,17.0,74,0.00,CLR,CLR,0.32,WeatherDisplay:10.37,2013-11-05 21:20:00,
2013-11-05 21:30:00,48.4,40.8,29.28,WNW,299,10.0,17.0,75,0.00,CLR,CLR,0.32,WeatherDisplay:10.37,2013-11-05 21:30:00,
2013-11-05 21:40:00,48.4,40.8,29.28,West,280,12.0,16.0,75,0.00,CLR,CLR,0.32,WeatherDisplay:10.37,2013-11-05 21:40:00,
2013-11-05 21:50:00,48.7,41.1,29.29,WNW,298,13.0,30.0,75,0.00,CLR,CLR,0.32,WeatherDisplay:10.37,2013-11-05 21:50:00,
2013-11-05 22:00:00,48.4,40.8,29.29,WNW,300,12.0,17.0,75,0.00,CLR,CLR,0.32,WeatherDisplay:10.37,2013-11-05 22:00:00,
2013-11-05 22:10:00,48.2,41.0,29.28,NW,306,10.0,15.0,76,0.00,CLR,CLR,0.32,WeatherDisplay:10.37,2013-11-05 22:10:00,
2013-11-05 22:20:00,47.8,41.6,29.29,WNW,300,12.0,14.0,79,0.00,CLR,CLR,0.32,WeatherDisplay:10.37,2013-11-05 22:20:00,
2013-11-05 22:30:00,48.6,41.4,29.29,NW,304,12.0,18.0,76,0.00,CLR,CLR,0.32,WeatherDisplay:10.37,2013-11-05 22:30:00,
2013-11-05 22:40:00,47.8,40.6,29.28,NW,309,12.0,18.0,76,0.00,CLR,CLR,0.32,WeatherDisplay:10.37,2013-11-05 22:40:00,
2013-11-05 22:50:00,47.5,40.6,29.28,WNW,294,10.0,16.0,77,0.00,CLR,CLR,0.32,WeatherDisplay:10.37,2013-11-05 22:50:00,
2013-11-05 23:00:00,47.7,40.8,29.27,WNW,282,8.0,13.0,77,0.00,CLR,CLR,0.32,WeatherDisplay:10.37,2013-11-05 23:00:00,
2013-11-05 23:10:00,47.7,40.5,29.27,WNW,288,8.0,14.0,76,0.00,CLR,CLR,0.32,WeatherDisplay:10.37,2013-11-05 23:10:00,
2013-11-05 23:20:00,47.7,40.8,29.27,WNW,301,8.0,13.0,77,0.00,CLR,CLR,0.32,WeatherDisplay:10.37,2013-11-05 23:20:00,
2013-11-05 23:30:00,47.5,40.6,29.26,WNW,286,7.0,12.0,77,0.00,CLR,CLR,0.32,WeatherDisplay:10.37,2013-11-05 23:30:00,
2013-11-05 23:40:00,47.9,41.3,29.28,NW,315,10.0,14.0,78,0.00,CLR,CLR,0.32,WeatherDisplay:10.37,2013-11-05 23:40:00,
2013-11-05 23:50:00,48.0,41.2,29.29,WNW,293,10.0,15.0,77,0.00,CLR,CLR,0.32,WeatherDisplay:10.37,2013-11-05 23:50:00,